Year,Month,Day,Hour,Minute,Value (Times are PST for temperature in C)
2020,09,29,00,00,15.40
2020,09,29,00,01,15.40
2020,09,29,00,02,15.40
2020,09,29,00,03,15.40
2020,09,29,00,04,15.50
2020,09,29,00,05,15.40
2020,09,29,00,06,15.40
2020,09,29,00,07,15.40
2020,09,29,00,08,15.40
2020,09,29,00,09,15.40
2020,09,29,00,10,15.40
2020,09,29,00,11,15.40
2020,09,29,00,12,15.40
2020,09,29,00,13,15.30
2020,09,29,00,14,15.30
2020,09,29,00,15,15.30
2020,09,29,00,16,15.30
2020,09,29,00,17,15.30
2020,09,29,00,18,15.30
2020,09,29,00,19,15.30
2020,09,29,00,20,15.30
2020,09,29,00,21,15.30
2020,09,29,00,22,15.30
2020,09,29,00,23,15.20
2020,09,29,00,24,15.20
2020,09,29,00,25,15.20
2020,09,29,00,26,15.20
2020,09,29,00,27,15.20
2020,09,29,00,28,15.20
2020,09,29,00,29,15.20
2020,09,29,00,30,15.10
2020,09,29,00,31,15.10
2020,09,29,00,32,15.10
2020,09,29,00,33,15.10
2020,09,29,00,34,15.10
2020,09,29,00,35,15.10
2020,09,29,00,36,15.10
2020,09,29,00,37,15.10
2020,09,29,00,38,15.00
2020,09,29,00,39,15.00
2020,09,29,00,40,15.00
2020,09,29,00,41,15.00
2020,09,29,00,42,15.00
2020,09,29,00,43,15.00
2020,09,29,00,44,14.90
2020,09,29,00,45,14.90
2020,09,29,00,46,14.90
2020,09,29,00,47,14.90
2020,09,29,00,48,14.90
2020,09,29,00,49,14.80
2020,09,29,00,50,14.80
2020,09,29,00,51,14.80
2020,09,29,00,52,14.80
2020,09,29,00,53,14.80
2020,09,29,00,54,14.80
2020,09,29,00,55,14.80
2020,09,29,00,56,14.70
2020,09,29,00,57,14.70
2020,09,29,00,58,14.70
2020,09,29,00,59,14.70
2020,09,29,01,00,14.70
2020,09,29,01,01,14.70
2020,09,29,01,02,14.70
2020,09,29,01,03,14.70
2020,09,29,01,04,14.70
2020,09,29,01,05,14.70
2020,09,29,01,06,14.70
2020,09,29,01,07,14.60
2020,09,29,01,08,14.60
2020,09,29,01,09,14.60
2020,09,29,01,10,14.60
2020,09,29,01,11,14.60
2020,09,29,01,12,14.60
2020,09,29,01,13,14.60
2020,09,29,01,14,14.60
2020,09,29,01,15,14.60
2020,09,29,01,16,14.60
2020,09,29,01,17,14.60
2020,09,29,01,18,14.60
2020,09,29,01,19,14.60
2020,09,29,01,20,14.60
2020,09,29,01,21,14.60
2020,09,29,01,22,14.60
2020,09,29,01,23,14.60
2020,09,29,01,24,14.60
2020,09,29,01,25,14.60
2020,09,29,01,26,14.60
2020,09,29,01,27,14.60
2020,09,29,01,28,14.60
2020,09,29,01,29,14.60
2020,09,29,01,30,14.60
2020,09,29,01,31,14.70
2020,09,29,01,32,14.70
2020,09,29,01,33,14.70
2020,09,29,01,34,14.70
2020,09,29,01,35,14.70
2020,09,29,01,36,14.70
2020,09,29,01,37,14.70
2020,09,29,01,38,14.70
2020,09,29,01,39,14.70
2020,09,29,01,40,14.70
2020,09,29,01,41,14.70
2020,09,29,01,42,14.70
2020,09,29,01,43,14.70
2020,09,29,01,44,14.70
2020,09,29,01,45,14.70
2020,09,29,01,46,14.70
2020,09,29,01,47,14.70
2020,09,29,01,48,14.70
2020,09,29,01,49,14.70
2020,09,29,01,50,14.60
2020,09,29,01,51,14.60
2020,09,29,01,52,14.60
2020,09,29,01,53,14.60
2020,09,29,01,54,14.60
2020,09,29,01,55,14.60
2020,09,29,01,56,14.50
2020,09,29,01,57,14.50
2020,09,29,01,58,14.50
2020,09,29,01,59,14.40
2020,09,29,02,00,14.40
2020,09,29,02,01,14.40
2020,09,29,02,02,14.40
2020,09,29,02,03,14.40
2020,09,29,02,04,14.40
2020,09,29,02,05,14.30
2020,09,29,02,06,14.30
2020,09,29,02,07,14.30
2020,09,29,02,08,14.30
2020,09,29,02,09,14.30
2020,09,29,02,10,14.20
2020,09,29,02,11,14.20
2020,09,29,02,12,14.20
2020,09,29,02,13,14.20
2020,09,29,02,14,14.20
2020,09,29,02,15,14.20
2020,09,29,02,16,14.20
2020,09,29,02,17,14.10
2020,09,29,02,18,14.10
2020,09,29,02,19,14.10
2020,09,29,02,20,14.10
2020,09,29,02,21,14.10
2020,09,29,02,22,14.10
2020,09,29,02,23,14.10
2020,09,29,02,24,14.10
2020,09,29,02,25,14.10
2020,09,29,02,26,14.00
2020,09,29,02,27,14.00
2020,09,29,02,28,14.00
2020,09,29,02,29,14.00
2020,09,29,02,30,14.00
2020,09,29,02,31,14.00
2020,09,29,02,32,13.90
2020,09,29,02,33,13.90
2020,09,29,02,34,13.80
2020,09,29,02,35,13.80
2020,09,29,02,36,13.80
2020,09,29,02,37,13.70
2020,09,29,02,38,13.70
2020,09,29,02,39,13.70
2020,09,29,02,40,13.70
2020,09,29,02,41,13.60
2020,09,29,02,42,13.60
2020,09,29,02,43,13.60
2020,09,29,02,44,13.60
2020,09,29,02,45,13.60
2020,09,29,02,46,13.60
2020,09,29,02,47,13.60
2020,09,29,02,48,13.50
2020,09,29,02,49,13.50
2020,09,29,02,50,13.50
2020,09,29,02,51,13.40
2020,09,29,02,52,13.40
2020,09,29,02,53,13.40
2020,09,29,02,54,13.30
2020,09,29,02,55,13.30
2020,09,29,02,56,13.30
2020,09,29,02,57,13.20
2020,09,29,02,58,13.20
2020,09,29,02,59,13.20
2020,09,29,03,00,13.10
2020,09,29,03,01,13.10
2020,09,29,03,02,13.10
2020,09,29,03,03,13.00
2020,09,29,03,04,13.00
2020,09,29,03,05,12.90
2020,09,29,03,06,12.90
2020,09,29,03,07,12.90
2020,09,29,03,08,12.80
2020,09,29,03,09,12.80
2020,09,29,03,10,12.70
2020,09,29,03,11,12.70
2020,09,29,03,12,12.70
2020,09,29,03,13,12.70
2020,09,29,03,14,12.70
2020,09,29,03,15,12.70
2020,09,29,03,16,12.70
2020,09,29,03,17,12.70
2020,09,29,03,18,12.70
2020,09,29,03,19,12.70
2020,09,29,03,20,12.70
2020,09,29,03,21,12.70
2020,09,29,03,22,12.70
2020,09,29,03,23,12.70
2020,09,29,03,24,12.70
2020,09,29,03,25,12.70
2020,09,29,03,26,12.80
2020,09,29,03,27,12.80
2020,09,29,03,28,12.70
2020,09,29,03,29,12.70
2020,09,29,03,30,12.70
2020,09,29,03,31,12.70
2020,09,29,03,32,12.60
2020,09,29,03,33,12.60
2020,09,29,03,34,12.60
2020,09,29,03,35,12.60
2020,09,29,03,36,12.60
2020,09,29,03,37,12.60
2020,09,29,03,38,12.70
2020,09,29,03,39,12.70
2020,09,29,03,40,12.70
2020,09,29,03,41,12.70
2020,09,29,03,42,12.70
2020,09,29,03,43,12.70
2020,09,29,03,44,12.70
2020,09,29,03,45,12.70
2020,09,29,03,46,12.70
2020,09,29,03,47,12.70
2020,09,29,03,48,12.70
2020,09,29,03,49,12.70
2020,09,29,03,50,12.70
2020,09,29,03,51,12.60
2020,09,29,03,52,12.60
2020,09,29,03,53,12.50
2020,09,29,03,54,12.40
2020,09,29,03,55,12.40
2020,09,29,03,56,12.40
2020,09,29,03,57,12.40
2020,09,29,03,58,12.30
2020,09,29,03,59,12.30
2020,09,29,04,00,12.30
2020,09,29,04,01,12.30
2020,09,29,04,02,12.30
2020,09,29,04,03,12.50
2020,09,29,04,04,12.60
2020,09,29,04,05,12.80
2020,09,29,04,06,12.90
2020,09,29,04,07,13.00
2020,09,29,04,08,13.10
2020,09,29,04,09,13.20
2020,09,29,04,10,13.30
2020,09,29,04,11,13.40
2020,09,29,04,12,13.50
2020,09,29,04,13,13.60
2020,09,29,04,14,13.60
2020,09,29,04,15,13.70
2020,09,29,04,16,13.70
2020,09,29,04,17,13.80
2020,09,29,04,18,13.80
2020,09,29,04,19,13.90
2020,09,29,04,20,13.90
2020,09,29,04,21,13.90
2020,09,29,04,22,13.90
2020,09,29,04,23,13.80
2020,09,29,04,24,13.80
2020,09,29,04,25,13.80
2020,09,29,04,26,13.70
2020,09,29,04,27,13.70
2020,09,29,04,28,13.70
2020,09,29,04,29,13.70
2020,09,29,04,30,13.70
2020,09,29,04,31,13.70
2020,09,29,04,32,13.80
2020,09,29,04,33,13.80
2020,09,29,04,34,13.80
2020,09,29,04,35,13.80
2020,09,29,04,36,13.70
2020,09,29,04,37,13.60
2020,09,29,04,38,13.60
2020,09,29,04,39,13.40
2020,09,29,04,40,13.40
2020,09,29,04,41,13.30
2020,09,29,04,42,13.30
2020,09,29,04,43,13.20
2020,09,29,04,44,13.20
2020,09,29,04,45,13.20
2020,09,29,04,46,13.20
2020,09,29,04,47,13.10
2020,09,29,04,48,13.10
2020,09,29,04,49,13.00
2020,09,29,04,50,13.00
2020,09,29,04,51,12.90
2020,09,29,04,52,12.90
2020,09,29,04,53,12.80
2020,09,29,04,54,12.80
2020,09,29,04,55,12.80
2020,09,29,04,56,12.70
2020,09,29,04,57,12.70
2020,09,29,04,58,12.70
2020,09,29,04,59,12.70
2020,09,29,05,00,12.70
2020,09,29,05,01,12.70
2020,09,29,05,02,12.70
2020,09,29,05,03,12.70
2020,09,29,05,04,12.70
2020,09,29,05,05,12.70
2020,09,29,05,06,12.70
2020,09,29,05,07,12.70
2020,09,29,05,08,12.70
2020,09,29,05,09,12.60
2020,09,29,05,10,12.50
2020,09,29,05,11,12.40
2020,09,29,05,12,12.30
2020,09,29,05,13,12.20
2020,09,29,05,14,12.20
2020,09,29,05,15,12.10
2020,09,29,05,16,12.10
2020,09,29,05,17,12.00
2020,09,29,05,18,12.00
2020,09,29,05,19,12.00
2020,09,29,05,20,12.00
2020,09,29,05,21,12.00
2020,09,29,05,22,12.00
2020,09,29,05,23,12.00
2020,09,29,05,24,12.00
2020,09,29,05,25,11.90
2020,09,29,05,26,11.90
2020,09,29,05,27,11.90
2020,09,29,05,28,11.90
2020,09,29,05,29,11.90
2020,09,29,05,30,11.90
2020,09,29,05,31,11.80
2020,09,29,05,32,11.80
2020,09,29,05,33,11.80
2020,09,29,05,34,11.90
2020,09,29,05,35,11.90
2020,09,29,05,36,12.00
2020,09,29,05,37,12.20
2020,09,29,05,38,12.40
2020,09,29,05,39,12.60
2020,09,29,05,40,12.70
2020,09,29,05,41,12.80
2020,09,29,05,42,12.80
2020,09,29,05,43,12.80
2020,09,29,05,44,12.80
2020,09,29,05,45,12.80
2020,09,29,05,46,12.80
2020,09,29,05,47,12.70
2020,09,29,05,48,12.50
2020,09,29,05,49,12.40
2020,09,29,05,50,12.30
2020,09,29,05,51,12.20
2020,09,29,05,52,12.00
2020,09,29,05,53,11.90
2020,09,29,05,54,11.80
2020,09,29,05,55,11.80
2020,09,29,05,56,11.80
2020,09,29,05,57,11.70
2020,09,29,05,58,11.70
2020,09,29,05,59,11.70
2020,09,29,06,00,11.80
2020,09,29,06,01,11.80
2020,09,29,06,02,11.80
2020,09,29,06,03,11.90
2020,09,29,06,04,12.00
2020,09,29,06,05,12.10
2020,09,29,06,06,12.20
2020,09,29,06,07,12.30
2020,09,29,06,08,12.30
2020,09,29,06,09,12.40
2020,09,29,06,10,12.50
2020,09,29,06,11,12.70
2020,09,29,06,12,12.70
2020,09,29,06,13,12.80
2020,09,29,06,14,12.90
2020,09,29,06,15,13.00
2020,09,29,06,16,13.00
2020,09,29,06,17,13.10
2020,09,29,06,18,13.10
2020,09,29,06,19,13.10
2020,09,29,06,20,13.20
2020,09,29,06,21,13.20
2020,09,29,06,22,13.20
2020,09,29,06,23,13.20
2020,09,29,06,24,13.20
2020,09,29,06,25,13.20
2020,09,29,06,26,13.30
2020,09,29,06,27,13.30
2020,09,29,06,28,13.30
2020,09,29,06,29,13.30
2020,09,29,06,30,13.30
2020,09,29,06,31,13.30
2020,09,29,06,32,13.30
2020,09,29,06,33,13.30
2020,09,29,06,34,13.30
2020,09,29,06,35,13.40
2020,09,29,06,36,13.40
2020,09,29,06,37,13.40
2020,09,29,06,38,13.40
2020,09,29,06,39,13.40
2020,09,29,06,40,13.40
2020,09,29,06,41,13.40
2020,09,29,06,42,13.40
2020,09,29,06,43,13.40
2020,09,29,06,44,13.40
2020,09,29,06,45,13.40
2020,09,29,06,46,13.50
2020,09,29,06,47,13.50
2020,09,29,06,48,13.60
2020,09,29,06,49,13.60
2020,09,29,06,50,13.60
2020,09,29,06,51,13.60
2020,09,29,06,52,13.70
2020,09,29,06,53,13.60
2020,09,29,06,54,13.70
2020,09,29,06,55,13.70
2020,09,29,06,56,13.70
2020,09,29,06,57,13.70
2020,09,29,06,58,13.70
2020,09,29,06,59,13.70
2020,09,29,07,00,13.70
2020,09,29,07,01,13.70
2020,09,29,07,02,13.70
2020,09,29,07,03,13.70
2020,09,29,07,04,13.70
2020,09,29,07,05,13.70
2020,09,29,07,06,13.70
2020,09,29,07,07,13.70
2020,09,29,07,08,13.70
2020,09,29,07,09,13.70
2020,09,29,07,10,13.70
2020,09,29,07,11,13.70
2020,09,29,07,12,13.70
2020,09,29,07,13,13.60
2020,09,29,07,14,13.60
2020,09,29,07,15,13.60
2020,09,29,07,16,13.60
2020,09,29,07,17,13.60
2020,09,29,07,18,13.60
2020,09,29,07,19,13.60
2020,09,29,07,20,13.60
2020,09,29,07,21,13.60
2020,09,29,07,22,13.60
2020,09,29,07,23,13.60
2020,09,29,07,24,13.60
2020,09,29,07,25,13.60
2020,09,29,07,26,13.60
2020,09,29,07,27,13.60
2020,09,29,07,28,13.60
2020,09,29,07,29,13.60
2020,09,29,07,30,13.60
2020,09,29,07,31,13.60
2020,09,29,07,32,13.60
2020,09,29,07,33,13.60
2020,09,29,07,34,13.60
2020,09,29,07,35,13.60
2020,09,29,07,36,13.60
2020,09,29,07,37,13.60
2020,09,29,07,38,13.60
2020,09,29,07,39,13.70
2020,09,29,07,40,13.70
2020,09,29,07,41,13.70
2020,09,29,07,42,13.70
2020,09,29,07,43,13.70
2020,09,29,07,44,13.70
2020,09,29,07,45,13.70
2020,09,29,07,46,13.70
2020,09,29,07,47,13.70
2020,09,29,07,48,13.70
2020,09,29,07,49,13.70
2020,09,29,07,50,13.70
2020,09,29,07,51,13.70
2020,09,29,07,52,13.70
2020,09,29,07,53,13.70
2020,09,29,07,54,13.80
2020,09,29,07,55,13.80
2020,09,29,07,56,13.80
2020,09,29,07,57,13.80
2020,09,29,07,58,13.80
2020,09,29,07,59,13.80
2020,09,29,08,00,13.80
2020,09,29,08,01,13.90
2020,09,29,08,02,13.90
2020,09,29,08,03,13.90
2020,09,29,08,04,13.90
2020,09,29,08,05,13.90
2020,09,29,08,06,13.90
2020,09,29,08,07,14.00
2020,09,29,08,08,14.00
2020,09,29,08,09,14.00
2020,09,29,08,10,14.10
2020,09,29,08,11,14.10
2020,09,29,08,12,14.10
2020,09,29,08,13,14.10
2020,09,29,08,14,14.20
2020,09,29,08,15,14.20
2020,09,29,08,16,14.20
2020,09,29,08,17,14.20
2020,09,29,08,18,14.20
2020,09,29,08,19,14.30
2020,09,29,08,20,14.30
2020,09,29,08,21,14.30
2020,09,29,08,22,14.30
2020,09,29,08,23,14.30
2020,09,29,08,24,14.40
2020,09,29,08,25,14.30
2020,09,29,08,26,14.40
2020,09,29,08,27,14.40
2020,09,29,08,28,14.40
2020,09,29,08,29,14.50
2020,09,29,08,30,14.50
2020,09,29,08,31,14.60
2020,09,29,08,32,14.60
2020,09,29,08,33,14.60
2020,09,29,08,34,14.60
2020,09,29,08,35,14.70
2020,09,29,08,36,14.70
2020,09,29,08,37,14.70
2020,09,29,08,38,14.80
2020,09,29,08,39,14.80
2020,09,29,08,40,14.80
2020,09,29,08,41,14.90
2020,09,29,08,42,14.90
2020,09,29,08,43,14.90
2020,09,29,08,44,15.00
2020,09,29,08,45,15.00
2020,09,29,08,46,15.10
2020,09,29,08,47,15.10
2020,09,29,08,48,15.20
2020,09,29,08,49,15.20
2020,09,29,08,50,15.20
2020,09,29,08,51,15.30
2020,09,29,08,52,15.30
2020,09,29,08,53,15.30
2020,09,29,08,54,15.40
2020,09,29,08,55,15.40
2020,09,29,08,56,15.50
2020,09,29,08,57,15.50
2020,09,29,08,58,15.60
2020,09,29,08,59,15.60
2020,09,29,09,00,15.70
2020,09,29,09,01,15.70
2020,09,29,09,02,15.70
2020,09,29,09,03,15.80
2020,09,29,09,04,15.80
2020,09,29,09,05,15.90
2020,09,29,09,06,15.90
2020,09,29,09,07,15.90
2020,09,29,09,08,16.00
2020,09,29,09,09,16.10
2020,09,29,09,10,16.10
2020,09,29,09,11,16.10
2020,09,29,09,12,16.20
2020,09,29,09,13,16.20
2020,09,29,09,14,16.20
2020,09,29,09,15,16.30
2020,09,29,09,16,16.30
2020,09,29,09,17,16.40
2020,09,29,09,18,16.40
2020,09,29,09,19,16.50
2020,09,29,09,20,16.50
2020,09,29,09,21,16.60
2020,09,29,09,22,16.60
2020,09,29,09,23,16.70
2020,09,29,09,24,16.70
2020,09,29,09,25,16.80
2020,09,29,09,26,16.80
2020,09,29,09,27,16.80
2020,09,29,09,28,16.80
2020,09,29,09,29,16.80
2020,09,29,09,30,16.80
2020,09,29,09,31,16.80
2020,09,29,09,32,16.80
2020,09,29,09,33,16.80
2020,09,29,09,34,16.80
2020,09,29,09,35,16.80
2020,09,29,09,36,16.80
2020,09,29,09,37,16.80
2020,09,29,09,38,16.80
2020,09,29,09,39,16.80
2020,09,29,09,40,16.80
2020,09,29,09,41,16.80
2020,09,29,09,42,16.80
2020,09,29,09,43,16.80
2020,09,29,09,44,16.80
2020,09,29,09,45,16.90
2020,09,29,09,46,16.90
2020,09,29,09,47,16.90
2020,09,29,09,48,17.00
2020,09,29,09,49,17.00
2020,09,29,09,50,17.10
2020,09,29,09,51,17.10
2020,09,29,09,52,17.10
2020,09,29,09,53,17.20
2020,09,29,09,54,17.20
2020,09,29,09,55,17.20
2020,09,29,09,56,17.30
2020,09,29,09,57,17.30
2020,09,29,09,58,17.30
2020,09,29,09,59,17.30
2020,09,29,10,00,17.40
2020,09,29,10,01,17.40
2020,09,29,10,02,17.50
2020,09,29,10,03,17.50
2020,09,29,10,04,17.50
2020,09,29,10,05,17.60
2020,09,29,10,06,17.60
2020,09,29,10,07,17.60
2020,09,29,10,08,17.70
2020,09,29,10,09,17.70
2020,09,29,10,10,17.70
2020,09,29,10,11,17.70
2020,09,29,10,12,17.70
2020,09,29,10,13,17.80
2020,09,29,10,14,17.80
2020,09,29,10,15,17.80
2020,09,29,10,16,17.90
2020,09,29,10,17,17.90
2020,09,29,10,18,17.90
2020,09,29,10,19,17.90
2020,09,29,10,20,17.90
2020,09,29,10,21,18.00
2020,09,29,10,22,18.00
2020,09,29,10,23,18.00
2020,09,29,10,24,18.00
2020,09,29,10,25,18.10
2020,09,29,10,26,18.10
2020,09,29,10,27,18.10
2020,09,29,10,28,18.20
2020,09,29,10,29,18.20
2020,09,29,10,30,18.20
2020,09,29,10,31,18.20
2020,09,29,10,32,18.20
2020,09,29,10,33,18.20
2020,09,29,10,34,18.20
2020,09,29,10,35,18.20
2020,09,29,10,36,18.20
2020,09,29,10,37,18.30
2020,09,29,10,38,18.30
2020,09,29,10,39,18.30
2020,09,29,10,40,18.40
2020,09,29,10,41,18.40
2020,09,29,10,42,18.50
2020,09,29,10,43,18.50
2020,09,29,10,44,18.50
2020,09,29,10,45,18.50
2020,09,29,10,46,18.60
2020,09,29,10,47,18.60
2020,09,29,10,48,18.60
2020,09,29,10,49,18.60
2020,09,29,10,50,18.70
2020,09,29,10,51,18.70
2020,09,29,10,52,18.80
2020,09,29,10,53,18.80
2020,09,29,10,54,18.80
2020,09,29,10,55,18.80
2020,09,29,10,56,18.90
2020,09,29,10,57,18.90
2020,09,29,10,58,18.90
2020,09,29,10,59,18.90
2020,09,29,11,00,18.90
2020,09,29,11,01,18.90
2020,09,29,11,02,19.00
2020,09,29,11,03,19.00
2020,09,29,11,04,19.00
2020,09,29,11,05,19.00
2020,09,29,11,06,18.90
2020,09,29,11,07,18.90
2020,09,29,11,08,19.00
2020,09,29,11,09,19.00
2020,09,29,11,10,19.10
2020,09,29,11,11,19.10
2020,09,29,11,12,19.10
2020,09,29,11,13,19.10
2020,09,29,11,14,19.10
2020,09,29,11,15,19.10
2020,09,29,11,16,19.10
2020,09,29,11,17,19.20
2020,09,29,11,18,19.20
2020,09,29,11,19,19.30
2020,09,29,11,20,19.30
2020,09,29,11,21,19.30
2020,09,29,11,22,19.30
2020,09,29,11,23,19.40
2020,09,29,11,24,19.40
2020,09,29,11,25,19.40
2020,09,29,11,26,19.40
2020,09,29,11,27,19.50
2020,09,29,11,28,19.50
2020,09,29,11,29,19.50
2020,09,29,11,30,19.50
2020,09,29,11,31,19.50
2020,09,29,11,32,19.40
2020,09,29,11,33,19.40
2020,09,29,11,34,19.40
2020,09,29,11,35,19.40
2020,09,29,11,36,19.40
2020,09,29,11,37,19.40
2020,09,29,11,38,19.50
2020,09,29,11,39,19.50
2020,09,29,11,40,19.50
2020,09,29,11,41,19.60
2020,09,29,11,42,19.70
2020,09,29,11,43,19.70
2020,09,29,11,44,19.70
2020,09,29,11,45,19.70
2020,09,29,11,46,19.70
2020,09,29,11,47,19.70
2020,09,29,11,48,19.70
2020,09,29,11,49,19.80
2020,09,29,11,50,19.80
2020,09,29,11,51,19.80
2020,09,29,11,52,19.90
2020,09,29,11,53,19.90
2020,09,29,11,54,20.00
2020,09,29,11,55,20.00
2020,09,29,11,56,20.00
2020,09,29,11,57,20.00
2020,09,29,11,58,20.00
2020,09,29,11,59,20.00
2020,09,29,12,00,20.10
2020,09,29,12,01,20.10
2020,09,29,12,02,20.10
2020,09,29,12,03,20.10
2020,09,29,12,04,20.10
2020,09,29,12,05,20.10
2020,09,29,12,06,20.10
2020,09,29,12,07,20.10
2020,09,29,12,08,20.10
2020,09,29,12,09,20.30
2020,09,29,12,10,20.40
2020,09,29,12,11,20.40
2020,09,29,12,12,20.40
2020,09,29,12,13,20.40
2020,09,29,12,14,20.40
2020,09,29,12,15,20.40
2020,09,29,12,16,20.40
2020,09,29,12,17,20.50
2020,09,29,12,18,20.60
2020,09,29,12,19,20.60
2020,09,29,12,20,20.70
2020,09,29,12,21,20.70
2020,09,29,12,22,20.70
2020,09,29,12,23,20.70
2020,09,29,12,24,20.70
2020,09,29,12,25,20.70
2020,09,29,12,26,20.70
2020,09,29,12,27,20.60
2020,09,29,12,28,20.60
2020,09,29,12,29,20.50
2020,09,29,12,30,20.40
2020,09,29,12,31,20.40
2020,09,29,12,32,20.40
2020,09,29,12,33,20.50
2020,09,29,12,34,20.40
2020,09,29,12,35,20.40
2020,09,29,12,36,20.40
2020,09,29,12,37,20.40
2020,09,29,12,38,20.40
2020,09,29,12,39,20.40
2020,09,29,12,40,20.50
2020,09,29,12,41,20.50
2020,09,29,12,42,20.60
2020,09,29,12,43,20.60
2020,09,29,12,44,20.60
2020,09,29,12,45,20.70
2020,09,29,12,46,20.70
2020,09,29,12,47,20.70
2020,09,29,12,48,20.70
2020,09,29,12,49,20.80
2020,09,29,12,50,20.80
2020,09,29,12,51,20.80
2020,09,29,12,52,20.80
2020,09,29,12,53,20.70
2020,09,29,12,54,20.70
2020,09,29,12,55,20.70
2020,09,29,12,56,20.70
2020,09,29,12,57,20.70
2020,09,29,12,58,20.70
2020,09,29,12,59,20.70
2020,09,29,13,00,20.70
2020,09,29,13,01,20.80
2020,09,29,13,02,20.80
2020,09,29,13,03,20.80
2020,09,29,13,04,20.80
2020,09,29,13,05,20.70
2020,09,29,13,06,20.70
2020,09,29,13,07,20.70
2020,09,29,13,08,20.80
2020,09,29,13,09,20.80
2020,09,29,13,10,20.90
2020,09,29,13,11,20.90
2020,09,29,13,12,21.00
2020,09,29,13,13,21.10
2020,09,29,13,14,21.10
2020,09,29,13,15,21.10
2020,09,29,13,16,21.20
2020,09,29,13,17,21.20
2020,09,29,13,18,21.20
2020,09,29,13,19,21.20
2020,09,29,13,20,21.20
2020,09,29,13,21,21.20
2020,09,29,13,22,21.30
2020,09,29,13,23,21.30
2020,09,29,13,24,21.40
2020,09,29,13,25,21.40
2020,09,29,13,26,21.40
2020,09,29,13,27,21.40
2020,09,29,13,28,21.30
2020,09,29,13,29,21.30
2020,09,29,13,30,21.30
2020,09,29,13,31,21.30
2020,09,29,13,32,21.30
2020,09,29,13,33,21.30
2020,09,29,13,34,21.30
2020,09,29,13,35,21.40
2020,09,29,13,36,21.30
2020,09,29,13,37,21.30
2020,09,29,13,38,21.30
2020,09,29,13,39,21.30
2020,09,29,13,40,21.30
2020,09,29,13,41,21.40
2020,09,29,13,42,21.30
2020,09,29,13,43,21.30
2020,09,29,13,44,21.30
2020,09,29,13,45,21.30
2020,09,29,13,46,21.40
2020,09,29,13,47,21.40
2020,09,29,13,48,21.50
2020,09,29,13,49,21.50
2020,09,29,13,50,21.60
2020,09,29,13,51,21.60
2020,09,29,13,52,21.60
2020,09,29,13,53,21.70
2020,09,29,13,54,21.70
2020,09,29,13,55,21.70
2020,09,29,13,56,21.70
2020,09,29,13,57,21.70
2020,09,29,13,58,21.70
2020,09,29,13,59,21.60
2020,09,29,14,00,21.70
2020,09,29,14,01,21.70
2020,09,29,14,02,21.80
2020,09,29,14,03,21.80
2020,09,29,14,04,21.80
2020,09,29,14,05,21.80
2020,09,29,14,06,21.80
2020,09,29,14,07,21.80
2020,09,29,14,08,21.80
2020,09,29,14,09,21.80
2020,09,29,14,10,21.70
2020,09,29,14,11,21.70
2020,09,29,14,12,21.80
2020,09,29,14,13,21.80
2020,09,29,14,14,21.90
2020,09,29,14,15,21.90
2020,09,29,14,16,21.90
2020,09,29,14,17,21.90
2020,09,29,14,18,21.90
2020,09,29,14,19,22.00
2020,09,29,14,20,22.00
2020,09,29,14,21,22.10
2020,09,29,14,22,22.10
2020,09,29,14,23,22.10
2020,09,29,14,24,22.10
2020,09,29,14,25,22.20
2020,09,29,14,26,22.20
2020,09,29,14,27,22.20
2020,09,29,14,28,22.20
2020,09,29,14,29,22.20
2020,09,29,14,30,22.20
2020,09,29,14,31,22.30
2020,09,29,14,32,22.30
2020,09,29,14,33,22.40
2020,09,29,14,34,22.50
2020,09,29,14,35,22.60
2020,09,29,14,36,22.60
2020,09,29,14,37,22.60
2020,09,29,14,38,22.60
2020,09,29,14,39,22.60
2020,09,29,14,40,22.50
2020,09,29,14,41,22.40
2020,09,29,14,42,22.40
2020,09,29,14,43,22.50
2020,09,29,14,44,22.60
2020,09,29,14,45,22.60
2020,09,29,14,46,22.60
2020,09,29,14,47,22.60
2020,09,29,14,48,22.60
2020,09,29,14,49,22.60
2020,09,29,14,50,22.60
2020,09,29,14,51,22.50
2020,09,29,14,52,22.50
2020,09,29,14,53,22.60
2020,09,29,14,54,22.70
2020,09,29,14,55,22.80
2020,09,29,14,56,22.80
2020,09,29,14,57,22.90
2020,09,29,14,58,22.80
2020,09,29,14,59,22.80
2020,09,29,15,00,22.90
2020,09,29,15,01,22.90
2020,09,29,15,02,22.90
2020,09,29,15,03,22.90
2020,09,29,15,04,22.90
2020,09,29,15,05,22.80
2020,09,29,15,06,22.90
2020,09,29,15,07,22.90
2020,09,29,15,08,22.90
2020,09,29,15,09,22.90
2020,09,29,15,10,22.90
2020,09,29,15,11,22.80
2020,09,29,15,12,22.80
2020,09,29,15,13,22.80
2020,09,29,15,14,22.80
2020,09,29,15,15,22.80
2020,09,29,15,16,22.80
2020,09,29,15,17,22.90
2020,09,29,15,18,22.90
2020,09,29,15,19,22.80
2020,09,29,15,20,22.80
2020,09,29,15,21,22.70
2020,09,29,15,22,22.70
2020,09,29,15,23,22.70
2020,09,29,15,24,22.70
2020,09,29,15,25,22.80
2020,09,29,15,26,22.90
2020,09,29,15,27,22.90
2020,09,29,15,28,22.90
2020,09,29,15,29,23.00
2020,09,29,15,30,23.00
2020,09,29,15,31,23.10
2020,09,29,15,32,23.10
2020,09,29,15,33,23.20
2020,09,29,15,34,23.30
2020,09,29,15,35,23.30
2020,09,29,15,36,23.30
2020,09,29,15,37,23.40
2020,09,29,15,38,23.30
2020,09,29,15,39,23.40
2020,09,29,15,40,23.40
2020,09,29,15,41,23.40
2020,09,29,15,42,23.30
2020,09,29,15,43,23.30
2020,09,29,15,44,23.30
2020,09,29,15,45,23.20
2020,09,29,15,46,23.10
2020,09,29,15,47,23.00
2020,09,29,15,48,22.90
2020,09,29,15,49,22.90
2020,09,29,15,50,22.80
2020,09,29,15,51,22.70
2020,09,29,15,52,22.70
2020,09,29,15,53,22.80
2020,09,29,15,54,22.80
2020,09,29,15,55,22.80
2020,09,29,15,56,22.90
2020,09,29,15,57,22.90
2020,09,29,15,58,23.00
2020,09,29,15,59,23.10
2020,09,29,16,00,23.10
2020,09,29,16,01,23.10
2020,09,29,16,02,23.10
2020,09,29,16,03,23.10
2020,09,29,16,04,23.10
2020,09,29,16,05,23.10
2020,09,29,16,06,23.00
2020,09,29,16,07,22.90
2020,09,29,16,08,22.90
2020,09,29,16,09,22.90
2020,09,29,16,10,22.90
2020,09,29,16,11,23.00
2020,09,29,16,12,23.00
2020,09,29,16,13,23.10
2020,09,29,16,14,23.10
2020,09,29,16,15,23.00
2020,09,29,16,16,22.90
2020,09,29,16,17,22.80
2020,09,29,16,18,22.80
2020,09,29,16,19,22.80
2020,09,29,16,20,22.80
2020,09,29,16,21,22.80
2020,09,29,16,22,22.80
2020,09,29,16,23,22.80
2020,09,29,16,24,22.80
2020,09,29,16,25,22.80
2020,09,29,16,26,22.80
2020,09,29,16,27,22.80
2020,09,29,16,28,22.80
2020,09,29,16,29,22.80
2020,09,29,16,30,22.80
2020,09,29,16,31,22.80
2020,09,29,16,32,22.80
2020,09,29,16,33,22.80
2020,09,29,16,34,22.90
2020,09,29,16,35,22.90
2020,09,29,16,36,23.00
2020,09,29,16,37,23.00
2020,09,29,16,38,23.00
2020,09,29,16,39,23.00
2020,09,29,16,40,23.00
2020,09,29,16,41,23.10
2020,09,29,16,42,23.00
2020,09,29,16,43,23.10
2020,09,29,16,44,23.10
2020,09,29,16,45,23.00
2020,09,29,16,46,23.00
2020,09,29,16,47,22.90
2020,09,29,16,48,22.90
2020,09,29,16,49,22.80
2020,09,29,16,50,22.80
2020,09,29,16,51,22.80
2020,09,29,16,52,22.70
2020,09,29,16,53,22.70
2020,09,29,16,54,22.70
2020,09,29,16,55,22.70
2020,09,29,16,56,22.70
2020,09,29,16,57,22.70
2020,09,29,16,58,22.70
2020,09,29,16,59,22.70
2020,09,29,17,00,22.60
2020,09,29,17,01,22.60
2020,09,29,17,02,22.50
2020,09,29,17,03,22.50
2020,09,29,17,04,22.40
2020,09,29,17,05,22.40
2020,09,29,17,06,22.40
2020,09,29,17,07,22.30
2020,09,29,17,08,22.30
2020,09,29,17,09,22.30
2020,09,29,17,10,22.30
2020,09,29,17,11,22.30
2020,09,29,17,12,22.30
2020,09,29,17,13,22.30
2020,09,29,17,14,22.30
2020,09,29,17,15,22.30
2020,09,29,17,16,22.30
2020,09,29,17,17,22.30
2020,09,29,17,18,22.30
2020,09,29,17,19,22.30